[[{"header":{"parameterUnit":"m.s-1","parameterCategory":1,"la1":30.2991,"la2":30.254,"lo1":-89.0895,"lo2":-89.0444,"dx":0.0017,"dy":0.0017,"nx":28,"ny":28,"refTime":"2022-12-18T15:00:00:Z","depth":0,"parameterNumber":2,"parameterNumberName":"U-component_of_WINDS"},"data":[0,0,0,0,0,0,0,0,0,0,0,0,0,0,0,0,0,0,0,0,0,0,0,0,0,0,0,0,0,0,0,0,0,0,0,0,0,0,0,0,0,0,0,0,0,0,0,0,0,0,0,0,0,0,0,0,0,0,-6.5338,-6.5338,0,-6.5381,-6.5381,-6.5382,-6.5178,-6.5172,-6.5166,-6.516,-6.5205,-6.5211,-6.5218,0,0,0,0,0,0,0,0,0,0,0,0,0,-6.5078,-6.5084,-6.5338,-6.5338,-6.5339,-6.5381,-6.5381,-6.5382,-6.5179,-6.5171,-6.5164,-6.5158,-6.5202,-6.521,-6.5218,0,0,0,0,0,0,0,0,0,0,0,0,0,-6.5163,-6.5086,-6.5338,-6.5243,-6.5234,-6.5381,-6.5381,-6.5382,-6.518,-6.5171,-6.5162,-6.5154,-6.52,-6.5209,-6.5219,-6.5459,0,0,-6.525,-6.5254,0,0,0,0,0,0,0,0,-6.5159,-6.5173,-6.5256,-6.5249,-6.5241,-6.5265,-6.5306,-6.5408,-6.5182,-6.5201,-6.516,-6.515,-6.5232,-6.5239,-6.5266,-6.5461,-6.5463,-6.5251,-6.5257,-6.5261,-6.5264,0,0,0,0,0,0,0,-6.5153,-6.517,-6.5355,-6.5257,-6.5248,-6.5197,-6.5199,-6.5324,-6.5266,-6.5199,-6.5184,-6.5192,-6.5226,-6.5257,-6.5266,-6.5464,-6.5251,-6.526,-6.5266,-6.527,-6.5855,-6.5864,0,0,0,0,0,0,-6.516,-6.5166,-6.5353,-6.5356,-6.5177,-6.5209,-6.5212,-6.5266,-6.5264,-6.5255,-6.5199,-6.5182,-6.5244,-6.5254,-6.5267,-6.5545,-6.5261,-6.5271,-6.5277,-6.5846,-6.5857,-6.5868,0,0,0,0,0,0,-6.5155,-6.5178,-6.5352,-6.5257,-6.5275,-6.5223,-6.5286,-6.5272,-6.5302,-6.5264,-6.5253,-6.5242,-6.5238,-6.5252,-6.5412,-6.5544,-6.5275,-6.5284,-6.5835,-6.5849,-6.5862,-6.6106,0,0,0,0,0,0,-6.5149,-6.5178,-6.5269,-6.5261,-6.5281,-6.5498,-6.5294,-6.5279,-6.532,-6.5298,-6.5301,-6.5293,-6.5232,-6.5398,-6.5422,-6.5553,-6.5292,-6.5822,-6.5841,-6.5858,-6.6086,-6.6127,-6.6162,0,0,0,0,0,-6.514,-6.5337,-6.5275,-6.5299,-6.5394,-6.5506,-6.5517,-6.5443,-6.5332,-6.5422,-6.5397,-6.5293,-6.5526,-6.5417,-6.5442,-6.5577,-6.5814,-6.5836,-6.5857,-6.6069,-6.6119,-6.6161,0,0,0,0,0,0,-6.5362,-6.5334,-6.5265,-6.5465,-6.549,-6.5471,-6.5583,-6.5498,-6.5555,-6.5532,-6.5436,-6.5439,-6.5615,-6.5612,-6.549,-6.5808,-6.565,-6.5678,-6.5804,-6.5851,-6.5888,-6.5884,-6.5301,0,0,0,0,0,-6.5435,-6.5528,-6.5498,-6.5678,-6.5693,-6.5637,-6.5683,-6.5623,-6.5644,-6.5654,-6.564,-6.5665,-6.5743,-6.5797,-6.5867,-6.6085,-6.6081,-6.6191,-6.6229,-6.626,-6.6284,-6.6397,-6.6445,-6.5938,-6.5938,-6.5937,0,0,-6.5585,-6.5581,-6.5646,-6.5722,-6.5734,-6.5832,-6.5647,-6.5759,-6.583,-6.567,-6.582,-6.5812,-6.5832,-6.6022,-6.6105,-6.6025,-6.6424,-6.6287,-6.6313,-6.632,-6.6424,-6.6472,-6.6515,-6.5952,-6.595,-6.5947,0,0,-6.5909,-6.5916,-6.6065,-6.6081,-6.61,-6.6061,-6.6098,-6.6092,-6.608,-6.6229,-6.611,-6.6193,-6.6331,-6.635,-6.6378,-6.6708,-6.6613,-6.6733,-6.6931,-6.7042,-6.7082,-6.7117,-6.7233,-6.7276,-6.6758,-6.6759,-6.6759,0,-6.6093,-6.6237,-6.6153,-6.6272,-6.6308,-6.6168,-6.6317,-6.6336,-6.6379,-6.6407,-6.6316,-6.6484,-6.6489,-6.668,-6.676,-6.6788,-6.6825,-6.6732,-6.7083,-6.7118,-6.7149,-6.7258,-6.7302,-6.6773,-6.6771,-6.677,-6.6769,0,-6.6461,-6.6562,-6.668,-6.6724,-6.6773,-6.6908,-6.6843,-6.6904,-6.6839,-6.681,-6.6962,-6.6962,-6.7029,-6.707,-6.7009,-6.7252,-6.7201,-6.71,-6.6939,-6.7213,-6.7314,-6.7355,-6.6794,-6.6788,-6.6784,-6.6781,0,0,-6.6927,-6.6921,-6.6965,-6.6982,-6.6994,-6.707,-6.7197,-6.7262,-6.7314,-6.7348,-6.7451,-6.757,-6.7475,-6.7507,-6.7446,-6.7545,-6.7803,-6.7429,-6.7428,-6.7497,-6.8069,-6.8145,-6.8195,-6.7741,-6.7749,-6.7755,-6.8066,0,-6.7242,-6.7459,-6.7386,-6.7606,-6.7697,-6.7564,-6.7675,-6.7693,-6.7669,-6.7742,-6.7715,-6.78,-6.7669,-6.7687,-6.7778,-6.7753,-6.7916,-6.7729,-6.7835,-6.784,-6.7832,-6.8247,-6.8328,-6.8622,-6.8106,-6.8112,-6.8117,0,-6.7639,-6.7687,-6.7917,-6.791,-6.7946,-6.8047,-6.8098,-6.8171,-6.8189,-6.8164,-6.8199,-6.8118,-6.8241,-6.8081,-6.8249,-6.8123,-6.8162,-6.8156,-6.8165,-6.8171,-6.7994,-6.8263,-6.8715,-6.8758,-6.8179,-6.8174,-6.8169,0,-6.7953,-6.8076,-6.8228,-6.8247,-6.8244,-6.8317,-6.8319,-6.8328,-6.8371,-6.8417,-6.8443,-6.8504,-6.8537,-6.8585,-6.8521,-6.8411,-6.8698,-6.8533,-6.8679,-6.8681,-6.8744,-6.8741,-6.9207,-6.8773,-6.8773,-6.8772,-6.8771,0,-6.8312,-6.8457,-6.8368,-6.8462,-6.862,-6.8535,-6.8693,-6.868,-6.8689,-6.8777,-6.8667,-6.8752,-6.8663,-6.874,-6.8691,-6.8836,-6.8852,-6.8834,-6.8819,-6.8843,-6.8846,-6.8866,-6.8844,-6.8783,-6.8781,-6.8779,-6.8777,0,-6.8688,-6.8636,-6.8792,-6.8776,-6.8775,-6.8892,-6.8878,-6.8963,-6.893,-6.9043,-6.9065,-6.9014,-6.9098,-6.9039,-6.9124,-6.909,-6.928,-6.9238,-6.9275,-6.9262,-6.9411,-6.9397,-6.9905,-6.9967,-6.9496,-6.95,-6.9504,0,-6.892,-6.9028,-6.9023,-6.9074,-6.9083,-6.9167,-6.9209,-6.913,-6.9179,-6.9206,-6.9289,-6.9363,-6.9418,-6.9559,-6.9529,-6.9592,-6.9549,-6.9723,-6.9558,-6.9578,-6.9549,-6.9543,-6.9552,-6.9756,-6.9761,-6.9766,-6.9769,0,-6.9336,-6.9304,-6.937,-6.9427,-6.9481,-6.9523,-6.9555,-6.9603,-6.9522,-6.9583,-6.9667,-6.971,-6.9795,-6.987,-6.9922,-6.9923,-6.9833,-6.9822,-6.9858,-6.9883,-6.9899,-6.989,-6.9363,-6.981,-6.9806,-6.9803,-6.9801,-6.9799,-6.9645,-6.9734,-6.9744,-6.9821,-6.9837,-6.9869,-6.9948,-6.9925,-6.9993,-7.0056,-7.0005,-7.0106,-7.0119,-7.0179,-7.0191,-7.0268,-7.0197,-7.0251,-7.0264,-7.0278,-7.0298,-6.9889,-7.0278,-7.0276,-7.0275,-7.0274,-7.0273,0,-7.0053,-7.0053,-7.0125,-7.0172,-7.0233,-7.0143,-7.0173,-7.0229,-7.0319,-7.0339,-7.0395,-7.0491,-7.0563,-7.0539,-7.0602,-7.0668,-7.0628,-7.0687,-7.068,-7.0682,-7.0359,-7.032,-7.0718,-7.0718,-7.0718,-7.0718,-7.0718,-7.0718,-7.0273,-7.0418,-7.0387,-7.0538,-7.0536,-7.0633,-7.0658,-7.0687,-7.0702,-7.0814,-7.0873,-7.0856,-7.0858,-7.092,-7.0982,-7.0972,-7.1,-7.1074,-7.105,-7.0749,-7.0705,-7.0663,-7.0625,-7.1081,-7.1082,-7.1366,-7.1368,-7.137]},{"header":{"parameterUnit":"m.s-1","parameterCategory":1,"la1":30.2991,"la2":30.254,"lo1":-89.0895,"lo2":-89.0444,"dx":0.0017,"dy":0.0017,"nx":28,"ny":28,"refTime":"2022-12-18T15:00:00:Z","depth":0,"parameterNumber":3,"parameterNumberName":"V-component_of_WINDS"},"data":[0,0,0,0,0,0,0,0,0,0,0,0,0,0,0,0,0,0,0,0,0,0,0,0,0,0,0,0,0,0,0,0,0,0,0,0,0,0,0,0,0,0,0,0,0,0,0,0,0,0,0,0,0,0,0,0,0,0,-3.1117,-3.1117,0,-3.1143,-3.1143,-3.1144,-3.1125,-3.1124,-3.1123,-3.1123,-3.1148,-3.115,-3.1151,0,0,0,0,0,0,0,0,0,0,0,0,0,-3.1048,-3.1049,-3.1117,-3.1117,-3.1118,-3.1143,-3.1143,-3.1144,-3.1125,-3.1124,-3.1123,-3.1122,-3.1148,-3.1149,-3.1151,0,0,0,0,0,0,0,0,0,0,0,0,0,-3.1076,-3.105,-3.1117,-3.1111,-3.1111,-3.1143,-3.1143,-3.1144,-3.1125,-3.1124,-3.1123,-3.1122,-3.1147,-3.1149,-3.1151,-3.1189,0,0,-3.1158,-3.1159,0,0,0,0,0,0,0,0,-3.1075,-3.1079,-3.1112,-3.1112,-3.1112,-3.113,-3.1128,-3.1159,-3.1126,-3.112,-3.1123,-3.1121,-3.1143,-3.1145,-3.1153,-3.1191,-3.1192,-3.1158,-3.116,-3.116,-3.1161,0,0,0,0,0,0,0,-3.1073,-3.1078,-3.1127,-3.1112,-3.1112,-3.1107,-3.1109,-3.1134,-3.1138,-3.112,-3.1119,-3.1123,-3.1143,-3.1151,-3.1153,-3.1192,-3.1158,-3.116,-3.1161,-3.1162,-3.1259,-3.126,0,0,0,0,0,0,-3.1072,-3.1076,-3.1126,-3.1128,-3.109,-3.1109,-3.1112,-3.1125,-3.1138,-3.1138,-3.1124,-3.1122,-3.1148,-3.1151,-3.1154,-3.1197,-3.116,-3.1162,-3.1164,-3.1257,-3.1259,-3.126,0,0,0,0,0,0,-3.107,-3.1076,-3.1125,-3.1102,-3.1108,-3.1111,-3.1126,-3.1126,-3.1134,-3.114,-3.114,-3.1131,-3.1147,-3.1151,-3.118,-3.1198,-3.1163,-3.1165,-3.1256,-3.1258,-3.126,-3.1285,0,0,0,0,0,0,-3.1068,-3.1076,-3.1091,-3.1102,-3.1109,-3.1152,-3.1127,-3.1128,-3.1138,-3.1136,-3.1148,-3.1148,-3.1146,-3.1177,-3.1182,-3.12,-3.1167,-3.1254,-3.1257,-3.1259,-3.1282,-3.1287,-3.1291,0,0,0,0,0,-3.1066,-3.1098,-3.1092,-3.1098,-3.1128,-3.1153,-3.1157,-3.1154,-3.114,-3.1155,-3.1158,-3.1148,-3.1195,-3.118,-3.1186,-3.1205,-3.1253,-3.1256,-3.1259,-3.128,-3.1286,-3.1291,0,0,0,0,0,0,-3.109,-3.1099,-3.1093,-3.113,-3.1141,-3.115,-3.1168,-3.1161,-3.1176,-3.1173,-3.1168,-3.1171,-3.1201,-3.1206,-3.1189,-3.124,-3.1222,-3.1226,-3.1236,-3.1242,-3.1246,-3.1244,-3.1169,0,0,0,0,0,-3.1099,-3.1119,-3.1126,-3.1158,-3.1163,-3.1165,-3.1176,-3.1172,-3.1183,-3.1188,-3.1193,-3.1203,-3.122,-3.1232,-3.1248,-3.1283,-3.1284,-3.1299,-3.1303,-3.1307,-3.131,-3.1326,-3.1332,-3.127,-3.127,-3.127,0,0,-3.1119,-3.1127,-3.1139,-3.1162,-3.117,-3.1189,-3.1169,-3.1191,-3.1204,-3.1191,-3.1218,-3.1222,-3.1233,-3.1265,-3.1279,-3.127,-3.1328,-3.1311,-3.1314,-3.1315,-3.133,-3.1336,-3.1341,-3.1272,-3.1271,-3.1271,0,0,-3.1164,-3.1173,-3.1199,-3.1206,-3.1218,-3.1219,-3.1225,-3.1235,-3.1237,-3.1264,-3.1253,-3.1269,-3.1299,-3.1306,-3.1314,-3.1359,-3.135,-3.1365,-3.1388,-3.1404,-3.1409,-3.1413,-3.1427,-3.1432,-3.1368,-3.1368,-3.1368,0,-3.1187,-3.1216,-3.1213,-3.1235,-3.1244,-3.1232,-3.1256,-3.1264,-3.1281,-3.1287,-3.1277,-3.1312,-3.1319,-3.1351,-3.1361,-3.1369,-3.1374,-3.1363,-3.1409,-3.1413,-3.1417,-3.143,-3.1435,-3.137,-3.137,-3.137,-3.1369,0,-3.1242,-3.1262,-3.1281,-3.1297,-3.1308,-3.1332,-3.133,-3.1342,-3.1338,-3.1339,-3.1365,-3.1372,-3.1388,-3.1396,-3.1392,-3.1426,-3.142,-3.1409,-3.139,-3.1424,-3.1436,-3.1442,-3.1372,-3.1372,-3.1371,-3.1371,0,0,-3.1304,-3.1315,-3.1322,-3.1328,-3.1339,-3.1354,-3.1375,-3.1391,-3.14,-3.1411,-3.1428,-3.1453,-3.1442,-3.1451,-3.1447,-3.1461,-3.1493,-3.1449,-3.1449,-3.1455,-3.1529,-3.1535,-3.1541,-3.1488,-3.1489,-3.1489,-3.1527,0,-3.1348,-3.1386,-3.1382,-3.1417,-3.1434,-3.1422,-3.144,-3.1448,-3.145,-3.1463,-3.1464,-3.1481,-3.1467,-3.1472,-3.1485,-3.1487,-3.1508,-3.1484,-3.1501,-3.1502,-3.1497,-3.1548,-3.1556,-3.1591,-3.1532,-3.1533,-3.1533,0,-3.1405,-3.1417,-3.1453,-3.1459,-3.1466,-3.1483,-3.1495,-3.1509,-3.1517,-3.1517,-3.1525,-3.1519,-3.1539,-3.152,-3.1546,-3.153,-3.1537,-3.1538,-3.154,-3.154,-3.1519,-3.1548,-3.1602,-3.1607,-3.1541,-3.1541,-3.154,0,-3.1443,-3.1468,-3.1493,-3.1498,-3.1506,-3.1518,-3.1522,-3.1528,-3.1537,-3.1548,-3.1552,-3.1566,-3.1572,-3.1582,-3.1579,-3.1566,-3.1605,-3.1586,-3.1604,-3.1604,-3.1611,-3.1611,-3.1666,-3.1619,-3.1619,-3.1619,-3.1619,0,-3.1491,-3.1514,-3.151,-3.1525,-3.1548,-3.1543,-3.1567,-3.1569,-3.1575,-3.1589,-3.158,-3.1593,-3.1588,-3.1601,-3.1598,-3.1619,-3.1623,-3.1622,-3.1621,-3.1622,-3.1621,-3.1625,-3.1622,-3.162,-3.162,-3.162,-3.1619,0,-3.1538,-3.1536,-3.1562,-3.1566,-3.1568,-3.1585,-3.1589,-3.1602,-3.1602,-3.1619,-3.1623,-3.1623,-3.1637,-3.1634,-3.1651,-3.1649,-3.1674,-3.1671,-3.1671,-3.1669,-3.1686,-3.1683,-3.1744,-3.1751,-3.1701,-3.1701,-3.1702,0,-3.1568,-3.1585,-3.1591,-3.1599,-3.1603,-3.1618,-3.1625,-3.1621,-3.1629,-3.1638,-3.165,-3.1663,-3.1673,-3.1696,-3.1696,-3.1708,-3.1704,-3.1724,-3.1705,-3.1705,-3.1701,-3.17,-3.17,-3.1727,-3.1728,-3.1728,-3.1729,0,-3.1621,-3.1619,-3.1631,-3.1642,-3.1651,-3.166,-3.1668,-3.1675,-3.1671,-3.1681,-3.1694,-3.1702,-3.1718,-3.173,-3.174,-3.1743,-3.1735,-3.1735,-3.1739,-3.1739,-3.1738,-3.1737,-3.1679,-3.1733,-3.1733,-3.1732,-3.1732,-3.1732,-3.1659,-3.1672,-3.1677,-3.169,-3.1695,-3.1702,-3.1713,-3.1714,-3.1725,-3.1737,-3.1733,-3.1748,-3.1754,-3.1766,-3.1771,-3.1782,-3.1774,-3.1781,-3.1782,-3.1783,-3.1784,-3.1737,-3.1784,-3.1784,-3.1784,-3.1783,-3.1783,0,-3.171,-3.1712,-3.1724,-3.1733,-3.1743,-3.1734,-3.1741,-3.175,-3.1763,-3.1769,-3.1778,-3.1793,-3.1804,-3.1805,-3.1816,-3.1824,-3.182,-3.1827,-3.1825,-3.1826,-3.1792,-3.1786,-3.183,-3.183,-3.183,-3.183,-3.183,-3.183,-3.1737,-3.1757,-3.1755,-3.1777,-3.1779,-3.1793,-3.1798,-3.1803,-3.1807,-3.1824,-3.1833,-3.1833,-3.1836,-3.1847,-3.1856,-3.1856,-3.186,-3.1867,-3.1865,-3.1833,-3.1829,-3.1824,-3.1819,-3.1869,-3.1869,-3.1898,-3.1899,-3.1899]}]]